Regional Weather Roundup
Issued by NWS Upton, NY

Current Version | Previous Version | Text Only | Print | Product List | Glossary Off
Versions: 1 2 3 4 5 6 7 8 9 10 11 12 13 14 15 16 17 18 19 20 21 22 23 24 25 26 27 28 29 30 31 32 33 34 35 36 37 38 39 40 41 42 43 44 45 46 47 48 49 50
000 ASUS41 KOKX 110504 RWROKX REGIONAL WEATHER ROUNDUP NATIONAL WEATHER SERVICE NEW YORK NY 1200 AM EST THU FEB 11 2016 NOTE: "FAIR" INDICATES FEW OR NO CLOUDS BELOW 12,000 FEET WITH NO SIGNIFICANT WEATHER AND/OR OBSTRUCTIONS TO VISIBILITY. NYZ071-072-176-178-NJZ106-104-110600- NEW YORK CITY METRO AREA CITY SKY/WX TMP DP RH WIND PRES REMARKS CENTRAL PARK CLOUDY 31 13 47 NW9G21 29.76F WCI 23 LAGUARDIA APRT CLOUDY 32 16 51 W17G26 29.74F WCI 21 KENNEDY INTL CLOUDY 32 14 47 W16 29.76F WCI 21 NEWARK/LIBERTY CLOUDY 31 14 49 W14 29.76S WCI 21 BRNX BOT. GARD N/A 32 16 51 W13 29.74S WCI 22 TETERBORO CLOUDY 31 14 49 W6G17 29.74F WCI 25 $$ NYZ177-179-078>081-110600- LONG ISLAND NEW YORK CITY SKY/WX TMP DP RH WIND PRES REMARKS FARMINGDALE CLOUDY 32 17 54 W13G18 29.73F WCI 22 ISLIP MOCLDY 30 17 58 W8 29.71S WCI 22 SHIRLEY PTCLDY 29 17 61 W6 29.72F WCI 23 RIVERHEAD N/A 30 18 59 W6 29.69S WCI 24 WESTHAMPTON CLEAR 27 17 66 W7 29.73S WCI 19 EAST HAMPTON FAIR 29 20 67 W6 29.70F WCI 23 MONTAUK POINT N/A 33 24 69 W8 29.70S WCI 26 $$ NYZ052-065-067-110600- HUDSON VALLEY CITY SKY/WX TMP DP RH WIND PRES REMARKS WHITE PLAINS MOCLDY 30 17 58 W12 29.70S WCI 20 NEWBURGH NOT AVBL MONTGOMERY FLURRIES 29 18 63 NW17G25 29.71S WCI 17 POUGHKEEPSIE CLOUDY 32 18 56 W9 29.71R WCI 24 ALBANY CLOUDY 27 13 55 W9 29.70S WCI 18 $$ NJZ001-105-106-008-010-013-015-019>022-104-110600- NEW JERSEY CITY SKY/WX TMP DP RH WIND PRES REMARKS NEWARK/LIBERTY CLOUDY 31 14 49 W14 29.76S WCI 21 TETERBORO CLOUDY 31 14 49 W6G17 29.74F WCI 25 CALDWELL CLOUDY 30 13 49 VRB7 29.75F WCI 23 MORRISTOWN CLOUDY 30 12 47 W14 29.76S WCI 20 SOMERVILLE CLOUDY 27 16 63 VRB3 29.78R SUSSEX MIX PCPN 28 16 60 SW8 29.74R WCI 20 ANDOVER N/A 24 18 77 VRB3 29.75R TRENTON CLOUDY 27 13 55 NW10G23 29.80R WCI 17 MILLVILLE CLOUDY 27 15 61 W20G25 29.86R WCI 13 ATLANTIC CITY CLOUDY 29 14 53 W20G28 29.83R WCI 16 WRIGHTSTOWN PTCLDY 28 14 56 W14G24 29.78R WCI 16 TOMS RIVER CLOUDY 28 12 50 W13G21 29.79S WCI 18 BELMAR CLOUDY 30 10 43 W12G21 29.77S WCI 21 $$ PAZ047>061-062-071-110600- EASTERN PENNSYLVANIA CITY SKY/WX TMP DP RH WIND PRES REMARKS PHILADELPHIA CLOUDY 28 10 46 NW18G29 29.86R WCI 15 ALLENTOWN FLURRIES 25 13 60 W9 29.81S WCI 15 SCRANTON LGT SNOW 20 13 74 W14 29.77R WCI 7 $$ CTZ002-004>006-009-010-012-RIZ004-006-007-MAZ004-011-015-110600- SOUTHERN NEW ENGLAND IN CT CITY SKY/WX TMP DP RH WIND PRES REMARKS BRADLEY INTL PTCLDY 26 15 63 NW9 29.68S WCI 17 HARTFORD PTCLDY 31 17 56 W5 29.71R WCI 26 DANBURY CLOUDY 31 15 52 W7 29.70S WCI 24 WTRBRY/OXFORD CLOUDY 27 10 50 CALM 29.68S BRIDGEPORT MOCLDY 31 21 66 W7 29.71F WCI 24 MERIDEN CLEAR 19 14 81 CALM 29.70S NEW HAVEN PTCLDY 32 21 64 W6 29.71R WCI 26 CHESTER FAIR 30 19 64 NW5 29.68S WCI 25 GROTON CLEAR 27 22 81 CALM 29.69S WILLIMANTIC CLEAR 23 20 88 SW3 29.69S IN RI CITY SKY/WX TMP DP RH WIND PRES REMARKS PROVIDENCE PTCLDY 30 19 63 W7 29.68S WCI 23 BLOCK ISLAND CLOUDY 34 23 64 NW8 29.67S WCI 27 WESTERLY PTCLDY 27 22 81 CALM 29.70R IN MA CITY SKY/WX TMP DP RH WIND PRES REMARKS BOSTON PTCLDY 31 20 63 W10G21 29.65R WCI 22 WORCESTER CLEAR 23 17 78 W9 29.61S WCI 13 WESTFIELD CLEAR 26 15 63 NW5 29.68S WCI 20 PROVINCETOWN CLOUDY 34 25 69 W17 29.65R WCI 23 NANTUCKET CLOUDY 36 28 73 W9 29.66S WCI 29 $$ ANZ330-335-338-340-345-350-353-355-110600- COASTAL MARINE OBSERVATIONS STATION/POSITION TIME SKY/WX TEMP WIND PRES VSBY WAVE AIR SEA DIR/SP/G HT/PER (UTC) (F) (DEG/KT/KT) (MB) (MI) (FT/S) NY HARB ENTRANCE 0350 33 43 280/ 23/ 27 1006.7 5/ 4 4S FIRE IS NOT AVBL 20S FIRE ISLAND 0350 34 44 290/ 21/ 27 1006.8 7/ 6 GREAT SOUTH BAY NOT AVBL 23SW MTP 0450 36 46 290/ 17/ 21 1005.3 8/12 HUDSON CANYON 0350 36 48 1007.6 7/ 7 KINGS POINT 0400 32 38 310/ 16/ 19 1006.7 EXECUTION ROCKS NOT AVBL CENTRAL LI SOUND 0430 36 290/ 16/ 17 N/A 3/ 5 EASTERN LI SOUND 0400 36 41 300/ 12/ 16 N/A ROBBINS REEF 0400 31 280/ 19/ 21 1006.8 $$ >>>>>>>>>>>>>>>>>>>>>>>>>>>> KEY <<<<<<<<<<<<<<<<<<<<<<<<<<< > < > SKY/WX - SKY CONDITION/PRESENT WEATHER < > TMP - TEMPERATURE IN FAHRENHEIT < > DP - DEWPOINT IN FAHRENHEIT < > RH - RELATIVE HUMIDITY IN PERCENT < > WIND - DIRECTION AND SPEED IN MPH < > PRES - MEAN SEA LEVEL PRESSURE IN INCHES OF HG < > WCI - WIND CHILL INDEX < > VSB - VISIBILITY IN MILES < > HX - HEAT INDEX < > TC - TEMPERATURE IN CELSIUS < > VRB - VARIABLE WIND DIRECTION < > < >>>>>>>>>>>>>>>>>>>>>>>>>>>> KEY <<<<<<<<<<<<<<<<<<<<<<<<<<<

USA.gov is the U.S. government's official web portal to all federal, state and local government web resources and services.